[Iaude] MPEC T36: 2023 TS [a=1.26,e=0.54,i=5.1,H=27.1]

mpec at marsden.cfa.harvard.edu mpec at marsden.cfa.harvard.edu
Thu Oct 5 22:06:30 EDT 2023


M.P.E.C. 2023-T36                               Issued 2023 October 6, 02:04 UT

     The Minor Planet Electronic Circulars contain information on unusual
         minor planets, routine data on comets and natural satellites,
         and occasional editorial announcements.  They are published
    on behalf of Division F of the International Astronomical Union by the
          Minor Planet Center, Smithsonian Astrophysical Observatory,
                          Cambridge, MA 02138, U.S.A.
			  
             Prepared using the Tamkin Foundation Computer Network

                              MPC at CFA.HARVARD.EDU
            URL https://www.minorplanetcenter.net/    ISSN 1523-6714

                                    2023 TS                                     


Observations:
     K23T00S*KC2023 10 04.76344 22 51 41.28 +11 16 34.2          19.9 GXET036L51
     K23T00S KC2023 10 04.76475 22 51 43.62 +11 16 30.4          19.8 GXET036L51
     K23T00S KC2023 10 04.76630 22 51 46.59 +11 16 24.2          20.0 GXET036L51
     K23T00S KC2023 10 04.81557 22 53 16.76 +11 13 19.1          19.7 GXET036L51
     K23T00S KC2023 10 04.81877 22 53 22.48 +11 13 07.3          19.3 GXET036L51
     K23T00S KC2023 10 04.82193 22 53 28.06 +11 12 54.9          19.7 GXET036L51
     K23T00S pC2023 10 04.91753222 56 17.15 +11 07 04.7          19.8 GVET036L01
     K23T00S hC2023 10 04.91951122 56 20.43 +11 06 58.7          19.7 GVET036L01
     K23T00S pC2023 10 04.92149022 56 23.62 +11 06 51.7          19.9 GVET036L01
     K23T00S hC2023 10 04.92349422 56 26.80 +11 06 44.4          20.0 GVET036L01
     K23T00S hC2023 10 04.92590022 56 30.71 +11 06 36.3          20.0 GVET036L01
     K23T00S KB2023 10 04.93713722 56 53.35 +11 06 03.0          20.2 GVET036I93
     K23T00S KB2023 10 04.94697522 57 08.86 +11 05 28.3          19.3 GVET036I93
     K23T00S KC2023 10 04.97409 22 57 47.80 +11 03 53.4          19.6 GVET036104
     K23T00S KC2023 10 04.97778 22 57 53.55 +11 03 40.7          19.6 GVET036104
     K23T00S KC2023 10 04.98383022 58 06.31 +11 03 27.2          19.6 GXET036958
     K23T00S KC2023 10 04.99345722 58 21.06 +11 02 52.9                XET036958
     K23T00S KC2023 10 05.00302022 58 35.47 +11 02 19.3          18.9 GXET036958
     K23T00S 1C2023 10 05.16824423 03 00.670+10 54 53.57         19.93GVET036G96
     K23T00S 1C2023 10 05.17387423 03 07.823+10 54 37.91         20.17GVET036G96
     K23T00S 1C2023 10 05.17949723 03 14.969+10 54 21.82         20.32GVET036G96
     K23T00S 1C2023 10 05.18511723 03 22.036+10 54 06.16         20.11GVET036G96
     K23T00S KC2023 10 05.19311423 03 30.31 +10 53 29.4          20.3 GXET036858
     K23T00S KC2023 10 05.19987423 03 38.71 +10 53 09.9          19.8 GXET036858
     K23T00S KC2023 10 05.20759123 03 48.26 +10 52 48.0          20.5 GXET036858
     K23T00S  C2023 10 05.27429223 05 12.044+10 49 44.38         20.2 GVET036654
     K23T00S  C2023 10 05.27830223 05 16.709+10 49 33.05         20.2 GVET036654
     K23T00S  C2023 10 05.38016023 07 11.905+10 44 48.00         20.4 GVET036654
     K23T00S  C2023 10 05.38417023 07 16.344+10 44 36.64         20.4 GVET036654
     K23T00S KC2023 10 05.79474 23 14 32.80 +10 28 38.9          20.0 GXET036L51
     K23T00S KC2023 10 05.79784 23 14 35.22 +10 28 33.2          20.1 GXET036L51
     K23T00S KC2023 10 05.80098 23 14 37.74 +10 28 27.3          20.5 GXET036L51

Observer details:
104 San Marcello Pistoiese.  Observers P. Bacci, M. Maestripieri.  Measurer P.
    Bacci.  0.60-m f/4.0 reflector + CCD.
654 Table Mountain Observatory, Wrightwood-PHMC.  Observers N. Evans, P. Choi,
    N. Saini, C. Zhai, R. Trahan, M. Shao.  1.0-m Reflector + CCD.
858 Tebbutt Observatory, Edgewood.  Observer F. B. Zoltowski.  0.51-m f/8.1
    Schmidt-Cassegrain + CCD.
958 Observatoire de Dax.  Observers P. Dupouy, J. B. de Vanssay.  Measurer P.
    Dupouy.  0.43-m f/2.7 Reflector + CCD.
G96 Mt. Lemmon Survey.  Observer G. J. Leonard.  Measurers E. C. Beshore, D.
    Fay, J. B. Fazekas, D. C. Fuls, A. R. Gibbs, A. D. Grauer, H. Groeller, J.
    K. Hogan, R. A. Kowalski, S. M. Larson, G. J. Leonard, D. Rankin, R. L.
    Seaman, F. C. Shelly, K. W. Wierzchos.  1.5-m reflector + 10K CCD.
I93 St Pardon de Conques.  Observer F. Losse.  0.40-m f/3.7 reflector + CMO.
L01 Visnjan Observatory, Tican.  Observer K. Korlevic.  1.0-m f/2.9 reflector
    + CCD.
L51 MARGO, Nauchnyi.  Observer G. Borisov.  0.50-m f/1.9 reflector + CCD.

Orbital elements:
2023 TS                                                  Earth MOID = 0.0034 AU
Epoch 2023 Sept. 13.0 TT = JDT 2460200.5                Veres                   
M  25.15931              (2000.0)            P               Q                  
n   0.69910320     Peri.  260.13435     -0.05526407     +0.99841840             
a   1.2573085      Node     6.72342     -0.87804993     -0.04367382             
e   0.5422636      Incl.    5.05873     -0.47536744     -0.03540182             
P   1.41           H   27.17          G   0.15           U   8                  
Residuals in seconds of arc
231004 L51  0.6+  0.6-    231004 I93  0.1-  0.2-    231005 858  0.1+  0.2+
231004 L51  1.3-  0.6+    231004 I93  0.9-  0.8-    231005 858  0.0   0.1-
231004 L51  0.5-  0.2+    231004 104  0.5+  0.2-    231005 858  0.3+  0.0
231004 L51  0.3-  0.2-    231004 104  0.8+  0.1+    231005 654  0.1-  0.1+
231004 L51  0.0   0.0     231004 958  0.1-  0.5+    231005 654  0.1-  0.1-
231004 L51  0.5-  0.6-    231004 958  1.0+  0.6-    231005 654  0.1-  0.1-
231004 L01  1.5-  1.0-    231005 958  0.1-  1.3-    231005 654  0.1-  0.3-
231004 L01  0.4-  0.1+    231005 G96  0.0   0.1+    231005 L51  0.7+  0.1-
231004 L01  0.7-  0.1+    231005 G96  0.2-  0.2+    231005 L51  0.0   0.1+
231004 L01  1.6-  0.1-    231005 G96  0.2+  0.0     231005 L51  0.3+  0.3+
231004 L01  1.2-  0.4+    231005 G96  0.2+  0.1+

Ephemeris:
2023 TS                  a,e,i = 1.26, 0.54, 5                   q = 0.5755
Date    TT    R. A. (2000) Decl.     Delta      r    Elong.  Phase     V
2023 09 06    11 59 14.6 -07 08 37   0.2972  0.7381    20.9   150.9    32.5
...
2023 09 21    12 08 22.6 -08 02 31   0.1232  0.8833    10.1   168.5
...
2023 09 29    12 30 38.9 -07 05 30   0.03995 0.9622     5.7   174.0
...
2023 10 05    22 58 38.5 +11 06 08   0.02255 1.0205   153.8    25.7    20.2
2023 10 06    23 17 18.4 +10 24 49   0.03253 1.0301   157.6    21.7    20.8
2023 10 07    23 27 10.7 +10 01 06   0.04264 1.0397   159.3    19.9    21.4
...
2023 10 13    23 46 17.7 +09 11 27   0.1044  1.0962   159.1    18.9    23.4
...
2023 10 21    23 53 57.4 +08 54 49   0.1897  1.1689   153.8    22.1    25.0
...
2023 11 05    00 04 37.8 +08 58 41   0.3620  1.2963   142.0    28.1    26.8

M. P. C. Staff               (C) Copyright 2023 MPC           M.P.E.C. 2023-T36





More information about the Iaude mailing list